Przejdź do zawartości

Wyniki: BIEGI SZPOT SWARZĘDZ 2026

strona biegu
Na mecie 610
Dystans 21.10 km
Zwycięzca 1:01:37
Mediana 1:57:09
M-ce Nr Zawodnik Kategoria Klub Miejscowość Czas Tempo
2577 Maciej Pordąb M40 / 1 GARBY Garby 1:01:37 2:55/km
1 2501 Tomasz Mikulski M30 / 1 KS PARTYZANT LESZNO Kampinos 1:10:06 3:19/km
2 2502 Marcin Stokowski M30 / 2 MANUFAKTURA MIESZKAŃ Pobiedziska 1:14:23 3:31/km
3 2564 Wojciech Gorączkowski M30 / 3 Gowarzewo 1:17:30 3:40/km
4 2559 Michał Kubiak M40 / 1 NIGHT RUNNERS Gortatowo 1:17:50 3:41/km
5 3214 Monika Brzozowska K40 / 1 Czerwonak 1:18:41 3:43/km
6 3242 Daniel Lorenz M50 / 1 KSR WIARA LECHA Kiekrz 1:22:34 3:54/km
7 3243 Marcin Golak M40 / 2 ROGOZIŃSCY PASJONACI BIEGANIA Poznań 1:23:18 3:56/km
8 2586 Mateusz Janczak M30 / 4 JANCZAK RUNNING CLUB Środa Wielkopolska 1:23:22 3:57/km
9 2567 Olivier Kończal M20 / 1 SOTE WNĘTRZA Środa Wielkopolska 1:23:21 3:57/km
10 2563 Łukasz Kopcza M30 / 5 Rabowice 1:23:53 3:58/km
11 2568 Damian Jarzembowski M20 / 2 WITKOWO BIEGA Gniezno 1:23:49 3:58/km
12 2570 Michał Matyla M40 / 3 Poznań 1:24:40 4:00/km
13 2597 Mateusz Soloch M20 / 3 MISTRZOWSKI TRENING Kłecko 1:25:06 4:02/km
14 2566 Piotr Rodewald M40 / 4 Poznań 1:25:50 4:04/km
15 2573 Maciej Pachowicz M40 / 5 Długa Goślina 1:26:44 4:06/km
16 2550 Bartosz Przybysz M30 / 6 KLAS SZPOT Swarzędz 1:26:54 4:07/km
17 2584 Marek Witkiewicz M60 / 1 Poznań 1:27:32 4:08/km
18 2594 Przemysław Toś M30 / 7 SZYMANOWSKI TEAM Kościan 1:27:39 4:09/km
19 2732 Jacek Karbowiak M40 / 6 Wrzesnia 1:27:45 4:09/km
20 2593 Sebastian Walczak M30 / 8 WALCZAK TEAM Turek 1:29:02 4:13/km
21 3233 Bartosz Adamczyk M30 / 9 #ZALINIAMETYTEAM Poznań 1:29:06 4:13/km
22 3241 Arkadiusz Kasica M40 / 7 Międzyrzecz 1:29:17 4:13/km
23 2575 Krystian Rokosik M30 / 10 Poznań 1:29:33 4:14/km
24 2560 Edwin Kuszczyk M50 / 2 EASY RUNNING TEAM Międzyrzecz 1:29:44 4:15/km
25 2592 Wojciech Walczak M30 / 11 31BLT/WALCZAK TEAM Gowarzewo 1:29:52 4:15/km
26 2623 Michał Dębiec M40 / 8 ŁAPA TRI RUN CREW Poznań 1:29:47 4:15/km
27 3211 Adam Wiliński M50 / 3 ALUPLAST POZNAŃ Fałkowo 1:30:07 4:16/km
28 2578 Mariusz Wiliński M40 / 9 MARVELTEAM Zalasewo 1:30:28 4:17/km
29 2600 Szymon Jakubowski M30 / 12 GRÓD KILIŃSKIEGO Kruszewnia 1:30:38 4:17/km
30 2610 Robert Smagieł M50 / 4 TOSZI TEAM Trzcianka 1:30:22 4:17/km
31 2588 Dawid Korcz M20 / 4 Poznań 1:30:41 4:17/km
32 2598 Michał Podwójci M40 / 10 Skórzewo 1:31:03 4:18/km
33 2616 Wojciech Nowaliński M30 / 15 Swarzędz 1:31:37 4:20/km
34 2601 Siraj Assed M30 / 14 Poznań 1:30:57 4:18/km
35 2713 Jakub Sawicki M20 / 5 Poznań 1:31:38 4:20/km
36 2661 Rafał Kusz M40 / 11 Międzyrzecz 1:32:29 4:23/km
37 2583 Przemysław Zbierski M30 / 16 Poznań 1:32:40 4:23/km
38 2748 Rafał Szefs M40 / 12 BIEGAM BO LUBIĘ Międzyrzecz 1:32:41 4:23/km
39 2611 Marek Ratajczak M50 / 5 Swarzędz 1:32:53 4:24/km
40 3224 Jan Kubczak M30 / 17 TONIK RUN CLUB Poznan 1:32:46 4:23/km
41 2620 Michał Duszyński M40 / 13 Koziegłowy 1:33:17 4:25/km
42 2589 Mateusz Mikołajewski M30 / 18 Tulce 1:33:12 4:25/km
43 2591 Kamil Bartkowiak M20 / 6 Jarosławiec 1:33:35 4:26/km
44 2652 Jakub Han M30 / 19 HANSOLO Witkowo 1:33:32 4:26/km
45 2651 Adam Chrzanowski M50 / 6 PARKRUN LAS DĘBIŃSKI Poznań 1:33:17 4:25/km
46 2614 Mirosław Musiał M50 / 7 Wronki 1:34:07 4:27/km
47 2649 Maryna Prudnikava K30 / 1 Dąbrówka 1:34:50 4:29/km
48 2619 Mateusz Gryska M30 / 20 Dachowa 1:34:44 4:29/km
49 2689 Filip Urbański M20 / 7 Poznań 1:34:58 4:30/km
50 2582 Karol Sobiech M40 / 14 HERNIK TEAM Pobiedziska 1:35:01 4:30/km
51 2590 Petro Pryadko M30 / 13 Janikowo 1:30:55 4:18/km
52 3225 Marek Szachowicz M50 / 8 Bolesławiec 1:35:12 4:30/km
53 2613 Andrzej Hadada M40 / 15 KS NEKLA Nekla 1:35:46 4:32/km
54 2635 Przemysław Strzyżewski M40 / 16 Gniezno 1:35:46 4:32/km
55 2833 Błażej Kosicki M20 / 8 Poznań 1:35:54 4:32/km
56 2571 Wojciech Smoter M30 / 21 Zalasewo 1:35:55 4:32/km
57 2604 Robert Polaczek M50 / 9 KB BIURA BIEGŁEGO SĄDOWEGO Swarzędz 1:35:56 4:32/km
58 2554 Witold Chraplak M40 / 17 Swarzędz 1:36:35 4:34/km
59 2749 Marcin Nowak M40 / 18 Piła 1:36:49 4:35/km
60 2664 Szymon Górski M30 / 22 Zalasewo 1:36:51 4:35/km
61 2956 Krzysztof Przybylski M30 / 23 KP TEAM Boszkowo 1:36:52 4:35/km
62 3210 Przemysław Głuchowski M50 / 10 MZUMA TEAM Żychlin 1:36:57 4:35/km
63 3215 Mieczysław Jędrzejczak M40 / 19 Poznań 1:37:01 4:35/km
64 2579 Maciej Żmuda M50 / 11 Swarzędz 1:37:05 4:36/km
65 3219 Adrian Surków M40 / 20 PARKRUN JEZIORO SWARZĘDZKIE Swarzędz 1:37:16 4:36/km
66 2683 Mateusz Dzioba M30 / 24 Poznań 1:37:21 4:36/km
67 2625 Marcin Potera M40 / 21 POBIEGANY OKUNIEW Okuniew 1:37:24 4:37/km
68 2663 Dawid Mieszkowski M40 / 22 Poznań 1:37:30 4:37/km
69 2812 Maksymilian Hrabski M20 / 9 Gorzów Wielkopolski 1:37:45 4:38/km
70 2809 Bartosz Kwiatkowski M20 / 10 Owińska 1:37:54 4:38/km
71 2650 Robert Rataj M50 / 12 Poznań 1:38:36 4:40/km
72 2708 Szymon Szymski M40 / 23 Gniezno 1:38:45 4:40/km
73 2696 Wojciech Niemir M20 / 11 Poznań 1:38:48 4:41/km
74 2735 Adam Lis M30 / 25 Swarzędz 1:38:53 4:41/km
75 2629 Martyna Manicka K20 / 1 HERNIK TEAM Poznań 1:38:54 4:41/km
76 2572 Patryk Bąk M30 / 26 Poznań 1:38:55 4:41/km
77 2863 Aleksandra Obiegała K30 / 2 Swarzędz 1:38:59 4:41/km
78 2693 Bartosz Klonowski M20 / 12 Tulce 1:39:01 4:41/km
79 3220 Magdalena Dykcik K30 / 3 Nekielka 1:39:01 4:41/km
80 2596 Yaroslav Bevz M20 / 13 Poznań 1:39:12 4:42/km
81 3254 Maciej Kaczmarek M30 / 27 Konin 1:39:21 4:42/km
82 2950 Hubert Żak M20 / 14 Poznań 1:39:22 4:42/km
83 3222 Krzysztof Dębowski M50 / 13 POLONIA ŚRODA Września 1:39:24 4:42/km
84 2638 Filip Dobrowolski M30 / 28 ZMĘCZENI NA STARCIE DOBIEGNIEW Luboń 1:39:24 4:42/km
85 2717 Konrad Małecki M20 / 15 Turek 1:39:26 4:42/km
86 2553 Maciek Szymański M50 / 14 PĘDZĄCY GACUŚ Poznań 1:39:31 4:43/km
87 2740 Łukasz Tylczyński M30 / 29 Poznań 1:39:32 4:43/km
88 2603 Tomasz Szubert M40 / 24 KB MARATON TUREK Turek 1:39:32 4:43/km
89 3217 Jan Myszkowski M60 / 2 1958 Wałcz77 1:39:36 4:43/km
90 2656 Dariusz Grupa M40 / 25 PARKRUN AKWEN TROPICANA Mielno 1:39:43 4:43/km
91 2730 Michał Wojtczuk M30 / 30 Poznań 1:39:45 4:43/km
92 2750 Karol Wojasiński M30 / 31 Poznań 1:39:49 4:43/km
93 2618 Beata Mucha K50 / 1 Poznań 1:39:52 4:44/km
94 2624 Robert Borek M40 / 26 Sulechow 1:39:52 4:44/km
95 2668 Adam Ogórek M40 / 27 TRITON KONIN Brzezno 1:39:58 4:44/km
96 2662 Grzegorz Telesnicki M50 / 15 BBL_GROTY Warszawa 1:39:58 4:44/km
97 2715 Tomasz Stempniak M30 / 32 Swarzędz 1:40:01 4:44/km
98 2543 Dominik Jędrzejko M40 / 28 BIEGAM SOBIE Jasin 1:40:03 4:44/km
99 2544 Adrian Wegner M30 / 33 BIEGAJĄCE KREJZOLE Poznań 1:40:03 4:44/km

Skąd te dane: wyniki pochodzą z serwisu firmy mierzącej czas i publikujemy je na podstawie prawnie uzasadnionego interesu (art. 6 ust. 1 lit. f RODO).

Nie chcesz, żeby Twój wynik był tu widoczny? Zgłoś sprzeciw — usuniemy go ze strony.